Regional Weather Roundup
Issued by NWS Cleveland, OH

Home | Current Version | Previous Version | Text Only | Print | Product List | Glossary Off
Versions: 1 2 3 4 5 6 7 8 9 10 11 12 13 14 15 16 17 18 19 20 21 22 23 24 25 26 27 28 29 30 31 32 33 34 35 36 37 38 39 40 41 42 43 44 45 46 47 48 49 50

000
ASUS41 KCLE 191600
RWRCLE
OHIO REGIONAL WEATHER ROUNDUP
NATIONAL WEATHER SERVICE WILMINGTON, OH
1100 AM EST FRI DEC 19 2014

NOTE: "FAIR" INDICATES FEW OR NO CLOUDS BELOW 12,000 FEET WITH NO
SIGNIFICANT WEATHER AND/OR OBSTRUCTIONS TO VISIBILITY.

OHZ001>008-015>018-024>027-034-035-043-044-191700-
   NORTHWEST OHIO

CITY           SKY/WX    TMP DP  RH WIND       PRES   REMARKS
DEFIANCE       CLOUDY    30  24  78 SW5       30.29R WCI  25
FINDLAY        CLOUDY    30  25  81 W7        30.27R WCI  23
TOLEDO EXPRESS CLOUDY    29  25  85 CALM      30.27R FOG
TOLEDO METCALF CLOUDY    30  25  81 E6        30.28R WCI  24
LIMA           CLOUDY    30  23  75 SW8       30.28R HAZE    WCI  22
$$

OHZ009>014-019>023-028>033-038-089-191700-
   NORTHEAST OHIO

CITY           SKY/WX    TMP DP  RH WIND       PRES   REMARKS
CLE-HOPKINS    CLOUDY    31  23  72 N10       30.27S WCI  22
CLE-LAKEFRONT  MOSUNNY   34  22  61 N10       30.25S WCI  26
CUY CO. ARPT   CLOUDY    32  25  74 NW9       30.24S WCI  24
LORAIN-ELYRIA  CLOUDY    29  26  89 NW3       30.26S
ASHTABULA      CLOUDY    30  22  72 NW9       30.22F WCI  22
AKRON-CANTON   FLURRIES  30  26  85 NW7       30.22R WCI  23
WOOSTER        NOT AVBL
MANSFIELD      CLOUDY    28  26  92 NW6       30.24R FOG     WCI  22
YOUNGSTOWN     CLOUDY    29  25  85 NW7       30.20S WCI  22
$$

OHZ042-051>053-060>062-070>072-077>081-191700-
  SOUTHWEST OHIO

CITY           SKY/WX    TMP DP  RH WIND       PRES   REMARKS
CINC-COVINGTON CLOUDY    29  18  63 NE6       30.29S WCI  23
CINC-LUNKEN    CLOUDY    29  21  72 NE3       30.33S
HAMILTON       CLOUDY    30  22  72 NE3       30.31F
DAYTON         NOT AVBL
WRIGHT-PAT AFB NOT AVBL
DAYTON GENERAL CLOUDY    28  21  75 CALM      30.28S
WILMINGTON     CLOUDY    29  20  69 CALM      30.27S
$$

OHZ036-037-039>041-045>050-054>059-063>069-073>076-082>088-191700-
  CENTRAL AND SOUTHEAST OHIO

CITY           SKY/WX    TMP DP  RH WIND       PRES   REMARKS
COLUMBUS       CLOUDY    29  22  75 NW3       30.28S
OSU AIRPORT    CLOUDY    29  23  78 W3        30.27S HAZE
BOLTON FIELD   CLOUDY    28  23  80 CALM      30.28S
RICKENBACK AFB NOT AVBL
NEWARK         CLOUDY    30  24  78 W5        30.27R WCI  25
MARION         CLOUDY    28  24  85 W7        30.27R FOG     WCI  21
LANCASTER      CLOUDY    29  23  78 W5        30.28S WCI  24
ZANESVILLE     CLOUDY    29  23  78 W6        30.26S HAZE    WCI  23
NEW PHILLY     CLOUDY    31  26  82 W5        30.25S WCI  26
$$



USA.gov is the U.S. government's official web portal to all federal, state and local government web resources and services.